| time (UTC) | temp C | wind direction | speed KPH | gust KPH | rain 1hr cm | rain 24hr cm | rain mn cm | humidity % | barometer mb |
| 20260507051534 | 8 | 324 | 3.2 | 6.4 | 0.00 | 5.23 | 0.00 | 81 | 1011.4 |
| 20260507050052 | 8 | 299 | 3.2 | 8.0 | 0.00 | 5.23 | 0.00 | 81 | 1011.2 |
| 20260507044536 | 8 | 345 | 3.2 | 6.4 | 0.00 | 5.59 | 0.00 | 81 | 1011.1 |
| 20260507043026 | 8 | 299 | 1.6 | 8.0 | 0.00 | 5.59 | 0.00 | 81 | 1010.8 |
| 20260507041526 | 8 | 350 | 0.0 | 6.4 | 0.00 | 5.59 | 0.00 | 80 | 1010.6 |
| 20260507040024 | 8 | 35 | 1.6 | 4.8 | 0.00 | 5.59 | 0.00 | 81 | 1010.5 |
| 20260507034620 | 8 | 285 | 0.0 | 3.2 | 0.00 | 5.61 | 0.00 | 80 | 1010.5 |
| 20260507033029 | 8 | 355 | 0.0 | 6.4 | 0.00 | 5.61 | 0.00 | 80 | 1010.4 |
| 20260507031518 | 9 | 317 | 6.4 | 11.3 | 0.00 | 5.61 | 0.00 | 80 | 1010.4 |
| 20260507030016 | 9 | 351 | 6.4 | 11.3 | 0.00 | 5.61 | 0.00 | 80 | 1010.4 |
| 20260507024518 | 9 | 333 | 4.8 | 9.7 | 0.00 | 5.61 | 0.00 | 80 | 1010.3 |
| 20260507023014 | 9 | 319 | 4.8 | 9.7 | 0.00 | 5.61 | 0.00 | 81 | 1010.3 |
| 20260507021519 | 9 | 336 | 1.6 | 6.4 | 0.00 | 5.61 | 0.00 | 81 | 1010.3 |
| 20260507020020 | 9 | 317 | 3.2 | 8.0 | 0.00 | 5.61 | 0.00 | 82 | 1010.3 |
| 20260507014507 | 9 | 271 | 1.6 | 6.4 | 0.00 | 5.66 | 0.00 | 81 | 1010.2 |
| 20260507013008 | 10 | 279 | 1.6 | 4.8 | 0.00 | 5.66 | 0.00 | 80 | 1010.2 |
| 20260507011513 | 10 | 307 | 3.2 | 6.4 | 0.00 | 5.66 | 0.00 | 81 | 1010.2 |
| 20260507004600 | 10 | 317 | 4.8 | 9.7 | 0.00 | 5.66 | 0.00 | 78 | 1010.1 |
| 20260507003059 | 10 | 309 | 4.8 | 8.0 | 0.00 | 5.66 | 0.00 | 79 | 1010.0 |
| 20260507001605 | 10 | 318 | 4.8 | 8.0 | 0.00 | 5.66 | 0.00 | 79 | 1009.9 |
| 20260507000055 | 10 | 232 | 0.0 | 9.7 | 0.00 | 5.66 | 0.00 | 79 | 1009.8 |
| 20260506234614 | 10 | 348 | 4.8 | 11.3 | 0.00 | 5.66 | 0.00 | 79 | 1009.6 |
| 20260506233050 | 10 | 101 | 6.4 | 11.3 | 0.00 | 5.66 | 0.00 | 79 | 1009.4 |
| 20260506231549 | 11 | 279 | 3.2 | 11.3 | 0.00 | 5.66 | 0.00 | 79 | 1009.3 |
| 20260506230047 | 11 | 311 | 3.2 | 9.7 | 0.00 | 5.66 | 0.00 | 79 | 1009.2 |
| 20260506224547 | 11 | 269 | 0.0 | 9.7 | 0.00 | 5.66 | 0.00 | 79 | 1009.2 |
| 20260506223048 | 11 | 325 | 4.8 | 11.3 | 0.00 | 5.66 | 0.00 | 80 | 1009.4 |
| 20260506221540 | 11 | 338 | 0.0 | 4.8 | 0.00 | 5.66 | 0.00 | 81 | 1009.6 |
| 20260506220038 | 11 | 288 | 1.6 | 4.8 | 0.00 | 5.66 | 0.00 | 81 | 1009.4 |
| 20260506214540 | 11 | 21 | 3.2 | 6.4 | 0.00 | 5.66 | 5.66 | 81 | 1009.3 |
| 20260506213036 | 11 | 333 | 6.4 | 11.3 | 0.00 | 5.66 | 5.66 | 82 | 1009.1 |
| 20260506211536 | 11 | 312 | 3.2 | 9.7 | 0.00 | 5.66 | 5.66 | 83 | 1009.1 |
| 20260506210037 | 11 | 360 | 4.8 | 9.7 | 0.00 | 5.66 | 5.66 | 85 | 1009.1 |
| 20260506204547 | 11 | 312 | 4.8 | 9.7 | 0.00 | 5.66 | 5.66 | 86 | 1008.8 |
| 20260506203033 | 11 | 355 | 1.6 | 6.4 | 0.00 | 5.66 | 5.66 | 86 | 1008.6 |
| 20260506201535 | 12 | 355 | 0.0 | 4.8 | 0.00 | 5.66 | 5.66 | 85 | 1008.5 |
| 20260506200034 | 12 | 355 | 1.6 | 6.4 | 0.00 | 5.66 | 5.66 | 86 | 1008.2 |
| 20260506194534 | 12 | 239 | 0.0 | 4.8 | 0.00 | 5.66 | 5.66 | 83 | 1008.0 |
| 20260506193031 | 13 | 306 | 0.0 | 3.2 | 0.00 | 5.66 | 5.66 | 81 | 1007.7 |
| 20260506191529 | 13 | 23 | 0.0 | 3.2 | 0.00 | 5.66 | 5.66 | 79 | 1007.5 |
| 20260506190028 | 13 | 39 | 3.2 | 6.4 | 0.00 | 5.66 | 5.66 | 78 | 1007.0 |
| 20260506184527 | 14 | 339 | 3.2 | 8.0 | 0.00 | 5.66 | 5.66 | 77 | 1006.8 |
| 20260506183027 | 14 | 5 | 1.6 | 11.3 | 0.00 | 5.66 | 5.66 | 74 | 1006.6 |
| 20260506181529 | 14 | 360 | 6.4 | 11.3 | 0.00 | 5.66 | 5.66 | 75 | 1006.2 |
| 20260506180126 | 15 | 175 | 3.2 | 9.7 | 0.00 | 5.66 | 5.66 | 72 | 1006.0 |
| 20260506174524 | 15 | 60 | 4.8 | 8.0 | 0.00 | 5.82 | 5.66 | 69 | 1005.6 |
| 20260506173024 | 16 | 257 | 3.2 | 6.4 | 0.00 | 5.82 | 5.66 | 66 | 1005.5 |
| 20260506171535 | 16 | 84 | 0.0 | 6.4 | 0.00 | 5.82 | 5.66 | 63 | 1005.4 |
| 20260506170023 | 17 | 171 | 0.0 | 6.4 | 0.00 | 5.82 | 5.66 | 62 | 1005.3 |
| 20260506164523 | 17 | 324 | 3.2 | 17.7 | 0.00 | 6.02 | 5.66 | 58 | 1004.9 |
| 20260506163022 | 17 | 288 | 11.3 | 22.5 | 0.00 | 6.02 | 5.66 | 61 | 1004.7 |
| 20260506161523 | 16 | 297 | 12.9 | 27.4 | 0.03 | 6.02 | 5.66 | 65 | 1004.5 |
| 20260506160033 | 15 | 301 | 8.0 | 24.1 | 0.03 | 6.02 | 5.66 | 68 | 1004.5 |
| 20260506154518 | 15 | 310 | 9.7 | 19.3 | 0.03 | 6.02 | 5.66 | 69 | 1004.9 |
| 20260506153017 | 16 | 304 | 8.0 | 16.1 | 0.03 | 6.02 | 5.66 | 70 | 1005.4 |
| 20260506151529 | 16 | 250 | 8.0 | 20.9 | 0.00 | 5.99 | 5.64 | 71 | 1005.4 |
| 20260506150026 | 16 | 344 | 11.3 | 22.5 | 0.00 | 5.99 | 5.64 | 72 | 1005.6 |
| 20260506144514 | 17 | 271 | 3.2 | 9.7 | 0.00 | 5.99 | 5.64 | 70 | 1005.6 |
| 20260506143034 | 17 | 71 | 3.2 | 6.4 | 0.00 | 5.99 | 5.64 | 70 | 1005.2 |
| 20260506141513 | 17 | 78 | 0.0 | 9.7 | 0.00 | 5.99 | 5.64 | 65 | 1005.1 |
| 20260506140014 | 18 | 273 | 1.6 | 6.4 | 0.00 | 5.99 | 5.64 | 61 | 1005.0 |
| 20260506134512 | 18 | 250 | 3.2 | 11.3 | 0.00 | 5.99 | 5.64 | 58 | 1005.0 |
| 20260506133009 | 18 | 269 | 9.7 | 17.7 | 0.00 | 5.99 | 5.64 | 60 | 1005.0 |
| 20260506131508 | 17 | 305 | 12.9 | 19.3 | 0.00 | 5.99 | 5.64 | 60 | 1005.2 |
| 20260506130002 | 17 | 310 | 11.3 | 22.5 | 0.00 | 5.99 | 5.64 | 65 | 1005.4 |
| 20260506124557 | 16 | 319 | 9.7 | 20.9 | 0.00 | 5.99 | 5.64 | 69 | 1005.6 |
| 20260506123055 | 15 | 315 | 9.7 | 24.1 | 0.00 | 5.99 | 5.64 | 67 | 1005.8 |
| 20260506121552 | 15 | 328 | 9.7 | 20.9 | 0.00 | 5.99 | 5.64 | 69 | 1005.9 |
| 20260506120048 | 15 | 321 | 9.7 | 19.3 | 0.00 | 5.99 | 5.64 | 71 | 1005.9 |
| 20260506114548 | 15 | 11 | 17.7 | 29.0 | 0.00 | 5.99 | 5.64 | 72 | 1005.9 |
| 20260506113043 | 14 | 346 | 11.3 | 19.3 | 0.00 | 5.99 | 5.64 | 84 | 1005.9 |
| 20260506111541 | 13 | 320 | 8.0 | 12.9 | 0.00 | 5.99 | 5.64 | 83 | 1006.0 |
| 20260506110041 | 13 | 324 | 8.0 | 17.7 | 0.00 | 5.99 | 5.64 | 86 | 1006.0 |
| 20260506104533 | 12 | 336 | 8.0 | 17.7 | 0.00 | 5.99 | 5.64 | 95 | 1006.1 |
| 20260506103031 | 10 | 342 | 6.4 | 14.5 | 0.05 | 5.99 | 5.64 | 96 | 1006.3 |
| 20260506101546 | 9 | 360 | 4.8 | 17.7 | 0.20 | 5.99 | 5.64 | 96 | 1006.3 |
| 20260506100030 | 8 | 321 | 9.7 | 17.7 | 0.61 | 5.99 | 5.64 | 97 | 1006.4 |
| 20260506094529 | 8 | 5 | 11.3 | 17.7 | 1.09 | 6.02 | 5.64 | 97 | 1006.4 |
| 20260506093028 | 8 | 311 | 11.3 | 22.5 | 1.45 | 5.97 | 5.59 | 96 | 1006.4 |
| 20260506091525 | 9 | 299 | 9.7 | 17.7 | 1.68 | 5.82 | 5.44 | 97 | 1006.3 |
| 20260506090020 | 10 | 281 | 8.0 | 16.1 | 1.75 | 5.41 | 5.03 | 97 | 1006.3 |
| 20260506084519 | 10 | 281 | 6.4 | 9.7 | 1.60 | 4.93 | 4.55 | 97 | 1006.0 |
| 20260506083013 | 10 | 317 | 4.8 | 9.7 | 1.75 | 4.50 | 4.11 | 97 | 1006.2 |
| 20260506081510 | 11 | 331 | 4.8 | 9.7 | 1.85 | 4.11 | 3.73 | 97 | 1006.6 |
| 20260506073006 | 11 | 355 | 1.6 | 6.4 | 1.45 | 2.72 | 2.31 | 97 | 1006.3 |
| 20260506071512 | 11 | 289 | 3.2 | 8.0 | 1.04 | 2.29 | 1.88 | 97 | 1006.2 |
| 20260506061600 | 11 | 199 | 0.0 | 1.6 | 0.25 | 1.30 | 0.84 | 97 | 1006.0 |